Regional Weather Roundup
Issued by NWS

Home | Current Version | Previous Version | Text Only | Print | Product List | Glossary Off
Versions: 1 2 3 4 5 6 7 8 9 10 11 12 13 14 15 16 17 18 19 20 21 22 23 24 25 26 27 28 29 30 31 32 33 34 35 36 37 38 39 40 41 42 43 44 45 46 47 48 49 50

000
ASUS43 KBIS 291502
RWRND

NORTH DAKOTA REGIONAL WEATHER ROUNDUP
NATIONAL WEATHER SERVICE BISMARCK ND
1000 AM CDT SAT AUG 29 2015

NOTE: "FAIR" INDICATES FEW OR NO CLOUDS BELOW 12,000 FEET WITH NO
SIGNIFICANT WEATHER AND/OR OBSTRUCTIONS TO VISIBILITY.


NDZ001>003-009>011-017-291600-
NORTHWEST NORTH DAKOTA

CITY           SKY/WX    TMP DP  RH WIND       PRES   REMARKS
WILLISTON      PTSUNNY   67  51  56 S6        29.91F HAZE
MINOT          CLOUDY    69  53  56 S8        29.90S HAZE
MINOT AFB      MOSUNNY   69  58  68 SW1       29.90R
$$

NDZ018>021-031>035-040>046-291600-
SOUTHWEST NORTH DAKOTA

CITY           SKY/WX    TMP DP  RH WIND       PRES   REMARKS
BISMARCK       CLOUDY    67  61  81 CALM      29.96S
DICKINSON      SUNNY     76  49  38 S8        29.96S HAZE
GARRISON         N/A     67  62  84 CALM      29.93F
HETTINGER ARPT CLOUDY    73  54  51 CALM      30.00F HAZE
$$

NDZ004>008-012>016-024-026-027-054-291600-
NORTHEAST NORTH DAKOTA

CITY           SKY/WX    TMP DP  RH WIND       PRES   REMARKS
GRAND FORKS    CLOUDY    66  65  96 S8        29.90F
GRND FRKS AFB  MOSUNNY   68  68 100 S8        29.91F
DEVILS LAKE    SUNNY     68  61  77 S5        29.91R
$$

NDZ022-023-025-028>030-036>039-047>053-291600-
SOUTHEAST NORTH DAKOTA

CITY           SKY/WX    TMP DP  RH WIND       PRES   REMARKS
FARGO          SUNNY     69  61  75 S12       29.95S
JAMESTOWN      SUNNY     68  64  87 S7        29.94R
$$




USA.gov is the U.S. government's official web portal to all federal, state and local government web resources and services.